Tacoma, WA

7:42 PM PST on February 24, 2017 (GMT -0800)
McChord Air Force Base

Weather History for KTCM - February, 2014

Change the Weather History Date:

Wednesday, February 12, 2014

  Actual Average Record
Temperature  
Mean Temperature 48 °F -  
Max Temperature 53 °F 47 °F 64 °F (1963)
Min Temperature 42 °F 30 °F 23 °F (2004)
Degree Days  
Heating Degree Days 18    
Moisture  
Dew Point 45 °F    
Average Humidity 91    
Maximum Humidity 100    
Minimum Humidity 58    
Precipitation  
Precipitation 0.18 in - - ()
Sea Level Pressure  
Sea Level Pressure 29.74 in    
Wind  
Wind Speed 14 mph (SSW)    
Max Wind Speed 32 mph    
Max Gust Speed 44 mph    
Visibility 9 miles    
Events Rain    
Averages and records for this station are not official NWS values.
T = Trace of Precipitation, MM = Missing Value Source: NWS Daily Summary

Daily Weather History Graph

Daily Weather History Graph

Search for Another Location

Airport or City:

Trip Planner

Search our weather history database for the weather conditions in past years. The results will help you decide how hot, cold, wet, or windy it might be!

Date:

Astronomy

Feb. 12, 2014 Rise Set
Actual Time 7:19 AM PST 5:29 PM PST
Civil Twilight 6:47 AM PST 6:01 PM PST
Nautical Twilight 6:11 AM PST 6:37 PM PST
Astronomical Twilight 5:36 AM PST 7:12 PM PST
Moon 3:45 PM PST (2/12) 5:42 AM PST (2/12)
Length of Visible Light 11h 13m
Length of Day
10h 10m
Waxing Gibbous, 96% of the Moon is Illuminated
Feb 12
Waxing Gibbous
Feb 14
Full
Feb 22
Last Quarter
Mar 1
New
Mar 8
First Quarter

Hourly Weather History & Observations

Time (PST) Temp. Windchill Dew Point Humidity Pressure Visibility Wind Dir Wind Speed Gust Speed Precip Events Conditions
12:04 AM 44.6 °F 40.7 °F 44.6 °F 100% 29.55 in 10.0 mi South 6.9 mph - N/A   Light Drizzle
12:13 AM 44.6 °F 40.7 °F 44.6 °F 100% 29.55 in 10.0 mi South 6.9 mph - N/A   Overcast
12:58 AM 47.7 °F - 47.1 °F 98% 29.52 in 10.0 mi SSW 13.8 mph 19.6 mph 0.00 in   Mostly Cloudy
1:58 AM 52.5 °F - 47.8 °F 84% 29.50 in 10.0 mi South 19.6 mph 33.4 mph N/A   Overcast
2:08 AM 53.6 °F - 48.2 °F 82% 29.49 in 10.0 mi SSW 21.9 mph 36.8 mph N/A   Overcast
2:33 AM 53.6 °F - 48.2 °F 82% 29.49 in 10.0 mi South 25.3 mph 43.7 mph N/A   Mostly Cloudy
2:58 AM 53.2 °F - 48.7 °F 85% 29.50 in 10.0 mi South 32.2 mph 42.6 mph N/A   Scattered Clouds
3:58 AM 52.9 °F - 49.8 °F 89% 29.57 in 10.0 mi SSW 26.5 mph 36.8 mph N/A   Clear
4:58 AM 51.6 °F - 51.4 °F 99% 29.62 in 10.0 mi SSW 24.2 mph 34.5 mph N/A   Mostly Cloudy
5:48 AM 50.0 °F - 50.0 °F 100% 29.63 in 10.0 mi SW 25.3 mph 35.7 mph N/A   Scattered Clouds
5:53 AM 50.0 °F - 50.0 °F 100% 29.62 in 10.0 mi SW 26.5 mph 35.7 mph N/A   Mostly Cloudy
5:58 AM 50.4 °F - 50.0 °F 99% 29.65 in 10.0 mi SW 21.9 mph 34.5 mph N/A   Mostly Cloudy
6:03 AM 50.0 °F - 50.0 °F 100% 29.64 in 10.0 mi SW 20.7 mph 31.1 mph N/A   Mostly Cloudy
6:08 AM 50.0 °F - 50.0 °F 100% 29.64 in 10.0 mi SW 25.3 mph 35.7 mph N/A   Mostly Cloudy
6:13 AM 50.0 °F - 50.0 °F 100% 29.64 in 10.0 mi SW 25.3 mph 35.7 mph N/A   Mostly Cloudy
6:18 AM 50.0 °F - 50.0 °F 100% 29.65 in 10.0 mi SW 24.2 mph 35.7 mph N/A   Mostly Cloudy
6:28 AM 50.0 °F - 50.0 °F 100% 29.66 in 10.0 mi SW 20.7 mph 33.4 mph N/A   Mostly Cloudy
6:33 AM 50.0 °F - 48.2 °F 94% 29.66 in 10.0 mi SW 24.2 mph 33.4 mph N/A   Mostly Cloudy
6:38 AM 50.0 °F - 48.2 °F 94% 29.67 in 10.0 mi SW 18.4 mph 33.4 mph N/A   Mostly Cloudy
6:48 AM 50.0 °F - 48.2 °F 94% 29.68 in 10.0 mi SW 19.6 mph 29.9 mph N/A   Mostly Cloudy
6:53 AM 48.2 °F - 48.2 °F 100% 29.68 in 10.0 mi SW 20.7 mph 27.6 mph N/A   Mostly Cloudy
6:58 AM 48.9 °F - 48.2 °F 97% 29.71 in 10.0 mi SW 18.4 mph 32.2 mph N/A   Mostly Cloudy
7:03 AM 48.2 °F - 48.2 °F 100% 29.70 in 10.0 mi WSW 18.4 mph 32.2 mph N/A   Mostly Cloudy
7:53 AM 48.2 °F - 46.4 °F 93% 29.75 in 10.0 mi SW 11.5 mph - N/A   Overcast
7:58 AM 48.2 °F - 46.8 °F 95% 29.77 in 10.0 mi SSW 10.4 mph - N/A   Overcast
8:09 AM 48.2 °F - 46.4 °F 93% 29.77 in 10.0 mi SW 11.5 mph - N/A Rain Light Rain
8:14 AM 48.2 °F - 46.4 °F 93% 29.77 in 9.0 mi SW 10.4 mph - N/A Rain Light Rain
8:19 AM 48.2 °F - 46.4 °F 93% 29.77 in 8.0 mi SW 10.4 mph - N/A Rain Light Rain
8:25 AM 48.2 °F - 46.4 °F 93% 29.78 in 10.0 mi SSW 11.5 mph - N/A   Overcast
8:45 AM 48.2 °F - 46.4 °F 93% 29.79 in 10.0 mi SW 10.4 mph - N/A   Overcast
8:55 AM 48.2 °F - 46.4 °F 93% 29.79 in 10.0 mi SW 15.0 mph - N/A   Overcast
8:58 AM 47.8 °F - 46.2 °F 94% 29.81 in 10.0 mi SW 12.7 mph - 0.00 in   Overcast
9:08 AM 50.0 °F - 46.4 °F 87% 29.81 in 10.0 mi WSW 8.1 mph 17.3 mph N/A   Overcast
9:13 AM 50.0 °F - 46.4 °F 87% 29.81 in 10.0 mi SW 9.2 mph 17.3 mph N/A   Overcast
9:18 AM 50.0 °F - 44.6 °F 82% 29.81 in 10.0 mi SW 13.8 mph 17.3 mph N/A   Overcast
9:23 AM 48.2 °F - 44.6 °F 87% 29.82 in 10.0 mi SW 12.7 mph 17.3 mph N/A   Overcast
9:33 AM 48.2 °F - 44.6 °F 87% 29.82 in 10.0 mi SW 16.1 mph 20.7 mph N/A   Overcast
9:58 AM 49.5 °F - 44.2 °F 82% 29.86 in 10.0 mi SSW 17.3 mph 21.9 mph N/A   Overcast
10:48 AM 50.0 °F - 42.8 °F 76% 29.88 in 10.0 mi SSW 16.1 mph - N/A   Mostly Cloudy
10:58 AM 49.5 °F - 41.4 °F 74% 29.91 in 10.0 mi SW 17.3 mph 23.0 mph N/A   Scattered Clouds
11:58 AM 52.0 °F - 41.5 °F 68% 29.92 in 10.0 mi SSW 18.4 mph 21.9 mph N/A   Overcast
12:58 PM 52.9 °F - 40.5 °F 63% 29.91 in 10.0 mi SW 17.3 mph 23.0 mph N/A   Partly Cloudy
1:58 PM 53.4 °F - 41.0 °F 63% 29.89 in 10.0 mi SW 12.7 mph - N/A   Partly Cloudy
2:58 PM 53.2 °F - 42.3 °F 66% 29.88 in 10.0 mi SSW 9.2 mph - N/A   Mostly Cloudy
3:58 PM 52.2 °F - 41.2 °F 66% 29.88 in 10.0 mi SSW 9.2 mph - N/A   Mostly Cloudy
4:58 PM 52.2 °F - 37.6 °F 58% 29.86 in 10.0 mi SSW 11.5 mph - N/A   Mostly Cloudy
5:58 PM 47.8 °F - 36.9 °F 66% 29.85 in 10.0 mi SW 6.9 mph - N/A   Clear
6:58 PM 45.1 °F 42.0 °F 38.8 °F 79% 29.83 in 10.0 mi South 5.8 mph - N/A   Overcast
7:08 PM 46.4 °F 43.5 °F 39.2 °F 76% 29.81 in 10.0 mi SW 5.8 mph - N/A   Overcast
7:58 PM 48.2 °F - 39.0 °F 71% 29.82 in 10.0 mi WSW 5.8 mph - N/A   Overcast
8:03 PM 48.2 °F - 39.2 °F 71% 29.80 in 10.0 mi SW 3.5 mph - N/A   Overcast
8:12 PM 48.2 °F - 39.2 °F 71% 29.80 in 10.0 mi SW 3.5 mph - N/A Rain Light Rain
8:27 PM 48.2 °F - 41.0 °F 76% 29.79 in 10.0 mi SSW 4.6 mph - N/A Rain Light Rain
8:37 PM 46.4 °F 45.2 °F 41.0 °F 81% 29.78 in 7.0 mi South 3.5 mph - N/A Rain Light Rain
8:49 PM 44.6 °F 42.2 °F 44.6 °F 100% 29.77 in 10.0 mi SE 4.6 mph - N/A   Overcast
8:54 PM 44.6 °F 42.2 °F 44.6 °F 100% 29.77 in 10.0 mi SE 4.6 mph - N/A   Overcast
8:58 PM 44.4 °F - 44.2 °F 99% 29.79 in 10.0 mi SE 2.3 mph - 0.02 in   Overcast
9:03 PM 44.6 °F - 44.6 °F 100% 29.77 in 10.0 mi SE 2.3 mph - N/A   Overcast
9:08 PM 44.6 °F 43.1 °F 44.6 °F 100% 29.76 in 10.0 mi SE 3.5 mph - N/A Rain Light Rain
9:13 PM 44.6 °F 42.2 °F 44.6 °F 100% 29.76 in 10.0 mi SSE 4.6 mph - N/A Rain Light Rain
9:23 PM 44.6 °F - 44.6 °F 100% 29.75 in 6.0 mi SSE 2.3 mph - N/A Rain Light Rain
9:33 PM 44.6 °F - 44.6 °F 100% 29.76 in 8.0 mi Calm Calm - N/A Rain Light Rain
9:38 PM 44.6 °F 42.2 °F 44.6 °F 100% 29.76 in 8.0 mi West 4.6 mph - N/A Rain Light Rain
9:48 PM 44.6 °F - 44.6 °F 100% 29.76 in 5.0 mi SSE 2.3 mph - N/A Rain Light Rain
9:53 PM 44.6 °F - 44.6 °F 100% 29.75 in 5.0 mi Calm Calm - N/A Rain Rain
9:58 PM 44.1 °F - 43.7 °F 99% 29.77 in 5.0 mi ESE 2.3 mph - 0.08 in Rain Rain
10:08 PM 44.6 °F 41.4 °F 42.8 °F 93% 29.76 in 5.0 mi WNW 5.8 mph - N/A Rain Rain
10:18 PM 44.6 °F - 44.6 °F 100% 29.75 in 5.0 mi East 2.3 mph - N/A Rain Rain
10:23 PM 44.6 °F 43.1 °F 44.6 °F 100% 29.75 in 7.0 mi ESE 3.5 mph - N/A Rain Light Rain
10:28 PM 44.6 °F 42.2 °F 44.6 °F 100% 29.75 in 8.0 mi SE 4.6 mph - N/A   Overcast
10:33 PM 42.8 °F 39.3 °F 42.8 °F 100% 29.74 in 9.0 mi SE 5.8 mph - N/A Rain Light Rain
10:38 PM 42.8 °F 39.3 °F 42.8 °F 100% 29.74 in 10.0 mi SE 5.8 mph - N/A Rain Light Rain
10:43 PM 42.8 °F 38.6 °F 42.8 °F 100% 29.74 in 10.0 mi SE 6.9 mph - N/A Rain Light Rain
10:58 PM 44.4 °F 39.0 °F 44.4 °F 100% 29.76 in 8.0 mi South 10.4 mph - 0.08 in Rain Light Rain
11:09 PM 46.4 °F 41.9 °F 46.4 °F 100% 29.74 in 10.0 mi South 9.2 mph - N/A   Overcast
11:14 PM 46.4 °F 40.7 °F 46.4 °F 100% 29.74 in 10.0 mi SSW 12.7 mph - N/A   Overcast
11:19 PM 48.2 °F - 48.2 °F 100% 29.75 in 10.0 mi SSW 16.1 mph 19.6 mph N/A   Overcast
11:24 PM 48.2 °F - 48.2 °F 100% 29.75 in 10.0 mi SSW 13.8 mph 19.6 mph N/A   Overcast
11:29 PM 48.2 °F - 48.2 °F 100% 29.75 in 10.0 mi SSW 16.1 mph - N/A   Overcast
11:32 PM 48.2 °F - 48.2 °F 100% 29.75 in 10.0 mi SW 17.3 mph 25.3 mph N/A   Light Drizzle
11:37 PM 48.2 °F - 48.2 °F 100% 29.76 in 9.0 mi SSW 16.1 mph 25.3 mph N/A   Light Drizzle
11:47 PM 50.0 °F - 48.2 °F 94% 29.77 in 9.0 mi SW 23.0 mph 29.9 mph N/A Rain Light Rain
11:51 PM 50.0 °F - 50.0 °F 100% 29.77 in 10.0 mi SW 20.7 mph 29.9 mph N/A   Overcast
11:58 PM 49.3 °F - 49.1 °F 99% 29.78 in 10.0 mi SW 20.7 mph 27.6 mph N/A   Overcast